星链-31280 (STARLINK-31280 )

导读 | 星芒AI

STARLINK-31280 是 SpaceX Starlink 卫星互联网项目中的一颗低轨卫星,属于第5批部署的星链卫星之一。该卫星于2021年发射,运行在约550公里高的近地轨道,旨在为全球用户提供高速互联网服务。Starlink 项目通过大规模部署卫星,构建覆盖全球的通信网络,特别服务于偏远地区。STARLINK-31280 采用先进推进系统和激光通信技术,提高网络效率与稳定性,是现代卫星通信技术发展的代表之一。

基本信息
目录编号:
58843
目录名称:
STARLINK-31280
国际标识:
2024-017T
轨道中心:
EARTH
卫星名称:
星链-31280
卫星全名:
星链-31280 (STARLINK-31280 )
卫星状态:
在轨 (已飞行695 天)
发射日期:
2024-01-24 UTC
国别 :
美国 (US)
星等 :
--
轨道信息
数据来源 国际轨道数据
星历时间: 2025-12-19T08:34:53+0800
22小时前
查看轨道信息
半长轴: 6853.371km
偏心率: 0.0001482
轨道倾角: 53.159°
近地点辐角 83.255°
升交点赤经 219.167°
平近点角 276.862°
近地点: 474.218km
远地点: 476.25km
周期: 94.106分钟
每日圈数: 15.301937
详细信息
固有亮度:
5
最大亮度:
0.3
卫星平台:
Starlink v2.0 mini
覆盖范围:
全球
运营商:
太空探索技术公司
运营商所在国:
美国
制造商(研发单位):
太空探索技术公司
制造商所在国:
美国
使用方式:
暂无
卫星简介
星链(Starlink)计划是由太空探索技术公司(SpaceX)提出的一个巨型低轨卫星互联网星座项目,计划在2019年至2024年间在太空搭建由约1.2万颗卫星组成的“星链”网络,其中1584颗将部署在地球上空550千米处的近地轨道,并从2020年开始工作。该卫星仍在工作。
2D轨道图
3D轨道图
轨道高度分析图
轨道倾角分析图
轨道综合分析图
查看轨道综合分析图